Flag for U.S.A. Weather past 2 weeks in Fremont, California, U.S.A.

Now
70 °F

Sunny.


Feels Like: 73 °F
Forecast: 66 / 78 °F
Wind: 12 mph from North

Location: Moffett Field

Current Time: Sep 23, 2014 at 8:13:08 PM

Latest Report: Sep 23, 2014 at 6:56 PM


Visibility: 10 mi

Pressure: 29.93 "Hg

Humidity: 73%

Dew point: 61 °F

Location of FremontLocation

Historic Weather in Fremont — Graph

°F

Fremont temperature yesterday

Maximum temperature yesterday: 77 °F (at 2:56 PM)
Minimum temperature yesterday: 63 °F (at 11:56 PM)
Average temperature yesterday: 68 °F

Past Weeks' High & Low Weather Summary

 TemperatureHumidityPressure
High86 °F (Sep 10, 2:56 PM)90% (Sep 10, 5:56 AM)30.07 "Hg (Sep 10, 5:56 AM)
Low56 °F (Sep 9, 1:56 AM)29% (Sep 10, 2:56 PM)29.74 "Hg (Sep 17, 5:56 PM)
Average68 °F70%29.90 "Hg
* Reported Sep 8 6:56 PM — Sep 23 6:56 PM, Fremont, Weather by CustomWeather, © 2014

Note: Actual official high and low records may vary slightly from our data, if they occured in-between our weather recording intervals... More about our weather records

Advertising

Fremont weather history for previous 24 hours

 ConditionsComfort  
Time TempWeatherWind HumidityBarometerVisibility
6:56 PM
Sep 23
70 °FSunny.12 mph73%29.93 "Hg10 mi
5:56 PM73 °FSunny.16 mph71%29.92 "Hg10 mi
4:56 PM75 °FSunny.16 mph64%29.92 "Hg10 mi
3:56 PM76 °FSunny.12 mph56%29.93 "Hg10 mi
2:56 PM78 °FSunny.13 mph52%29.95 "Hg10 mi
1:56 PM76 °FSunny.10 mph50%29.97 "Hg10 mi
12:56 PM74 °FSunny.8 mph60%30.00 "Hg10 mi
11:56 AM72 °FSunny.3 mph61%30.01 "Hg10 mi
10:56 AM69 °FScattered clouds.5 mph66%30.03 "Hg10 mi
10:03 AM68 °FScattered clouds.5 mph69%30.03 "Hg10 mi
8:56 AM65 °FOvercast.3 mph76%30.02 "Hg10 mi
7:56 AM61 °FSunny.No wind83%30.01 "Hg10 mi
6:56 AM61 °FPassing clouds.No wind83%30.01 "Hg10 mi
5:56 AM61 °FClear.No wind81%29.99 "Hg10 mi
4:56 AM61 °FClear.No wind83%29.98 "Hg10 mi
3:56 AM61 °FClear.No wind81%29.98 "Hg10 mi
2:56 AM62 °FClear.No wind78%30.00 "Hg10 mi
1:56 AM63 °FClear.No wind78%30.00 "Hg10 mi
12:56 AM63 °FClear.No wind75%30.00 "Hg10 mi
11:56 PM
Sep 22
63 °FClear.3 mph75%29.99 "Hg10 mi
10:56 PM65 °FClear.5 mph76%30.00 "Hg10 mi
9:56 PM65 °FClear.No wind73%29.99 "Hg10 mi
8:56 PM66 °FClear.5 mph73%29.99 "Hg10 mi
Weather by CustomWeather, © 2014

See weather overviewHow to use our weather pages